Location: Asheville, NC
(35.6000°N, 82.5500°W)
Time: 04:44:27
(UTC-05:00)

STARS - Pass Details

Date: 09 January 2018
Orbit: 625 x 641 km, 98.3° (Epoch: 22 January)

Event Time Altitude Azimuth Distance (km) Brightness Sun altitude
Rises 05:42:10 0° 164° (SSE) 2,895 ? -23.5°
Reaches altitude 10° 05:44:21 10° 163° (SSE) 1,991 ? -23.0°
Maximum altitude 05:48:40 81° 77° (ENE) 636 ? -22.2°
Enters shadow 05:50:52 29° 352° (N) 1,147 ? -21.7°
